Regional Weather Roundup
Issued by NWS Cleveland, OH

Home | Current Version | Previous Version | Text Only | Print | Product List | Glossary On
Versions: 1 2 3 4 5 6 7 8 9 10 11 12 13 14 15 16 17 18 19 20 21 22 23 24 25 26 27 28 29 30 31 32 33 34 35 36 37 38 39 40 41 42 43 44 45 46 47 48 49 50
000
ASUS41 KCLE 190610
RWRCLE
OHIO REGIONAL WEATHER ROUNDUP
NATIONAL WEATHER SERVICE WILMINGTON, OH
200 AM EDT FRI SEP 19 2014

NOTE: "FAIR" INDICATES FEW OR NO CLOUDS BELOW 12,000 FEET WITH NO
SIGNIFICANT WEATHER AND/OR OBSTRUCTIONS TO VISIBILITY.

OHZ001>008-015>018-024>027-034-035-043-044-190700-
   NORTHWEST OHIO

CITY           SKY/WX    TMP DP  RH WIND       PRES   REMARKS
DEFIANCE       CLEAR     52  49  89 NE3       30.21R FOG
FINDLAY        CLEAR     54  51  90 E5        30.20R
TOLEDO EXPRESS CLOUDY    54  48  82 CALM      30.22R
TOLEDO METCALF PTCLDY    55  48  77 NE3       30.23R
LIMA           CLEAR     50  48  93 E8        30.19S
$$

OHZ009>014-019>023-028>033-038-089-190700-
   NORTHEAST OHIO

CITY           SKY/WX    TMP DP  RH WIND       PRES   REMARKS
CLE-HOPKINS    PTCLDY    55  48  77 N5        30.23S
CLE-LAKEFRONT  CLEAR     57  48  72 NE6       30.20F
CUY CO. ARPT   NOT AVBL
LORAIN-ELYRIA  CLEAR     55  49  80 NE5       30.22R
ASHTABULA      CLEAR     47  45  93 CALM      30.22R FOG
AKRON-CANTON   CLEAR     51  47  86 NE3       30.20S
WOOSTER        CLEAR     46  43  89 N6        30.22R FOG
MANSFIELD      CLEAR     51  49  92 NE5       30.21R
YOUNGSTOWN     PTCLDY    45  44  97 CALM      30.21R
$$

OHZ042-051>053-060>062-070>072-077>081-190700-
  SOUTHWEST OHIO

CITY           SKY/WX    TMP DP  RH WIND       PRES   REMARKS
CINC-COVINGTON CLEAR     58  46  64 E5        30.15R
CINC-LUNKEN    CLEAR     50  48  93 CALM      30.16R
HAMILTON       CLEAR     48  47  96 CALM      30.17R
DAYTON         CLEAR     54  50  86 E7        30.19R
WRIGHT-PAT AFB CLEAR     54  49  86 NE5       30.17S
DAYTON GENERAL CLEAR     52  48  86 NE7       30.16R
WILMINGTON     CLEAR     51  46  83 NE7       30.16S
$$

OHZ036-037-039>041-045>050-054>059-063>069-073>076-082>088-190700-
  CENTRAL AND SOUTHEAST OHIO

CITY           SKY/WX    TMP DP  RH WIND       PRES   REMARKS
COLUMBUS       CLEAR     58  49  72 NE9       30.17S
OSU AIRPORT    CLEAR     53  49  86 NE6       30.18R
BOLTON FIELD   CLEAR     51  48  90 NE5       30.18S
RICKENBACK AFB CLEAR     49  47  90 NE5       30.17S
NEWARK         CLEAR     51  48  89 CALM      30.18S
MARION         CLEAR     49  46  90 NE5       30.20R
LANCASTER      CLEAR     50  48  93 CALM      30.18R
ZANESVILLE     CLEAR     52  48  86 CALM      30.18S
NEW PHILLY     PTCLDY    49  48  97 CALM      30.21R
$$



USA.gov is the U.S. government's official web portal to all federal, state and local government web resources and services.